Location: Bukit Lungun
(2.6833°N, 113.9667°E)
Time: 14:03:11
(UTC+00:00)

ARIANE 5 DEB (SYLDA) - Pass Details

Date: 02 March 2021
Orbit: 850 x 35969 km, 1.2° (Epoch: 20 April)

Event Time Altitude Azimuth Distance (km) Brightness Sun altitude
Exits shadow 22:17:53 - 268° (W) 11,700 7.8 -4.8°
Reaches altitude 10° 22:26:58 10° 268° (W) 8,533 7.2 -2.6°
Maximum altitude 22:45:17 81° 182° (S) 1,371 3.9 1.9°
Drops below altitude 10° 22:50:17 10° 94° (E) 2,572 7.9 3.2°
Sets 22:52:04 0° 93° (E) 3,401 8.9 3.6°
